This is the latest recevied weather packets stored in our database for station/object KD9JJA. If no packets are shown the sender has not sent any weather packets the latest 10 day(s).
| Time | Temp. | Humidity | Pressure | Rain* | Wind** | Luminosity | Snow |
|---|---|---|---|---|---|---|---|
| 1777787158 | 3.33° C | 98% | 1021 hPa | 0 mm | - | 0 W/m² | - |
| 1777786855 | 3.89° C | 98% | 1020.9 hPa | 0 mm | - | 0 W/m² | - |
| 1777786553 | 3.89° C | 98% | 1021.1 hPa | 0 mm | - | 0 W/m² | - |
| 1777786251 | 3.89° C | 98% | 1021 hPa | 0 mm | - | 0 W/m² | - |
| 1777785947 | 3.89° C | 98% | 1021.1 hPa | 0 mm | - | 0 W/m² | - |
| 1777785643 | 3.89° C | 98% | 1021 hPa | 0 mm | - | 0 W/m² | - |
| 1777785339 | 3.89° C | 97% | 1021.1 hPa | 0 mm | - | 0 W/m² | - |
| 1777785037 | 4.44° C | 98% | 1021.1 hPa | 0 mm | - | 0 W/m² | - |
| 1777784732 | 4.44° C | 97% | 1021.5 hPa | 0 mm | - | 0 W/m² | - |
| 1777784430 | 4.44° C | 98% | 1021.3 hPa | 0 mm | - | 0 W/m² | - |
| 1777784127 | 4.44° C | 97% | 1021 hPa | 0 mm | - | 0 W/m² | - |
| 1777783825 | 3.89° C | 97% | 1021.1 hPa | 0 mm | - | 0 W/m² | - |
| 1777783521 | 3.89° C | 96% | 1021.1 hPa | 0 mm | - | 0 W/m² | - |
| 1777783219 | 3.89° C | 96% | 1021.3 hPa | 0 mm | - | 0 W/m² | - |
| 1777782914 | 4.44° C | 96% | 1021.1 hPa | 0 mm | - | 0 W/m² | - |
| 1777782611 | 4.44° C | 96% | 1020.9 hPa | 0 mm | - | 0 W/m² | - |
| 1777782308 | 4.44° C | 96% | 1020.9 hPa | 0 mm | - | 0 W/m² | - |
| 1777782004 | 4.44° C | 95% | 1020.9 hPa | 0 mm | - | 0 W/m² | - |
| 1777781702 | 4.44° C | 95% | 1020.9 hPa | 0 mm | - | 0 W/m² | - |
| 1777781399 | 5° C | 95% | 1020.8 hPa | 0 mm | - | 0 W/m² | - |
| 1777781096 | 4.44° C | 94% | 1020.9 hPa | 0 mm | - | 0 W/m² | - |
| 1777780793 | 5° C | 94% | 1020.8 hPa | 0 mm | - | 0 W/m² | - |
| 1777780489 | 5° C | 93% | 1020.9 hPa | 0 mm | - | 0 W/m² | - |
| 1777780188 | 5° C | 93% | 1020.9 hPa | 0 mm | - | 0 W/m² | - |
| 1777779884 | 5° C | 92% | 1020.9 hPa | 0 mm | - | 0 W/m² | - |
* Rain latest hour (hover to see other rain measurements)
** Current wind speed in m/s (hover to see current wind gust speed)